Location: Caltech
(34.1382°N, 118.1253°W)
Time: 13:57:40
(UTC-07:00)

Cosmos 1937 Rocket - Visible Passes

Search period start: 28 June 2017 00:00
Search period end: 08 July 2017 00:00
Orbit: 748 x 780 km, 74.0° (Epoch: 27 June)

Date Brightness Start Highest point End Pass type
(mag) Time Alt. Az. Time Alt. Az. Time Alt. Az.
28 Jun 4.3 01:39:45 46° NNE 01:39:45 46° NNE 01:43:24 10° NNE visible
28 Jun 5.8 03:19:55 11° WNW 03:20:45 11° WNW 03:22:09 10° NW visible
29 Jun 5.1 01:02:04 28° NE 01:02:04 28° NE 01:04:49 10° NNE visible
29 Jun 5.2 02:42:14 20° WNW 02:42:14 20° WNW 02:45:52 10° NNW visible
30 Jun 5.7 00:24:22 15° ENE 00:24:22 15° ENE 00:25:45 10° NE visible
30 Jun 4.7 02:04:31 33° NW 02:04:31 33° NW 02:08:19 10° N visible
01 Jul 4.5 01:26:47 43° N 01:26:47 43° N 01:30:20 10° N visible
02 Jul 4.8 00:49:01 35° NE 00:49:01 35° NE 00:52:01 10° NNE visible
02 Jul 5.8 02:29:11 13° WNW 02:29:19 13° WNW 02:31:35 10° NNW visible
03 Jul 5.3 00:11:14 22° NE 00:11:14 22° NE 00:13:21 10° NE visible
03 Jul 5.3 01:51:23 22° NW 01:51:23 22° NW 01:54:46 10° NNW visible
03 Jul 5.8 23:33:25 12° ENE 23:33:25 12° ENE 23:34:05 10° NE visible
04 Jul 4.8 01:13:34 34° NNW 01:13:34 34° NNW 01:17:05 10° N visible
05 Jul 4.6 00:35:43 40° N 00:35:43 40° N 00:39:01 10° NNE visible
05 Jul 4.9 23:57:50 31° NE 23:57:50 31° NE 00:00:38 10° NNE visible
06 Jul 5.8 01:37:59 15° WNW 01:37:59 15° WNW 01:40:45 10° NNW visible
06 Jul 5.3 23:19:55 20° ENE 23:19:55 20° ENE 23:21:51 10° NE visible
07 Jul 5.2 01:00:04 25° NW 01:00:04 25° NW 01:03:37 10° N visible
07 Jul 5.8 22:41:58 11° ENE 22:41:58 11° ENE 22:42:20 10° ENE visible
